THOR ABLESTAR DEB, 252

Orbit data source: Space-Track

THOR ABLESTAR DEB, 252 is space debris in LEO originally from a launch on Thu, 29 Jun 1961 UTC launched from the Air Force Eastern Test Range (AFETR). Debris objects in space refer to the collection of defunct objects orbiting the Earth. Examples of debris include non-operational satellites, rocket bodies, and fragments generated from explosions, collisions, or faulty payload assembly.

Loading next visibility...
Identifier
252, 1961-015CD
Orbit
LEO
Country
Flag of USUS
Related business
Manufacturer
Unknown
Mission
Spacecraft
Bus & Motor
Unknown
Mass
Unknown
Launch date (UTC)
1961-06-29 (65 years ago)
Launch vehicle
Unknown
Launch site
Air Force Eastern Test Range (AFETR)
Object type
Payload
Rocket body
Debris
Shape & HBR
Unknown shape, 0.4 m
Radar Cross Section
Medium (>0.1 m² and <1 m²)

Expand to show TLE details & history
Last TLE update: 13 hours ago

TLE from 13 hours ago
0 THOR ABLESTAR DEB
1 00252U 61015CD  26174.77980574  .00000187  00000-0  25577-3 0  9994
2 00252  67.0764 171.1108 0056531 203.3715 331.2770 13.77836835252239
Epoch: 2026-06-23T18:42Z
TLE epoch observation values (Epoch: 2026-06-23T18:42:55.215Z)
Latitude
5.14786°
Longitude
156.26224°
Altitude
936.747 km
Speed
7.402 km/s
True Right ascension
23h 15m 45s
True Declination
5° 07' 05"
Sunlit
Object was in daylight at epoch
Visualization orbit readout
Latitude
Unknown
Longitude
Unknown
Altitude
Unknown
Speed
Unknown
Apparent Right ascension
Unknown
Apparent Declination
Unknown
Sunlit
N/A
Visualization observer readout
Local Sidereal Time
18:55:01
Azimuth
Unknown
Elevation
Unknown
Doppler factor
Unknown
Orbital elements
Apogee altitude
1,011.481 km
Perigee altitude
928.402 km
Semi-major axis
7,348.078 km
Eccentricity
0.00565
Inclination
67.0764°
RAAN
171.1108°
Arg. of periapsis
203.3715°
True anomaly
330.96375°
Mean anomaly
331.277°
Eccentric anomaly
331.12057°
Mean motion
3.44574 °/min
Orbital period
104.48 mins
BSTAR
0.00025577

Documentation

Showing up to 5 results
|